TimeEST,TemperatureF,Dew PointF,Humidity,Sea Level PressureIn,VisibilityMPH,Wind Direction,Wind SpeedMPH,Gust SpeedMPH,PrecipitationIn,Events,Conditions,WindDirDegrees,DateUTC
12:06 AM,26.6,24.8,93,30.01,2.5,North,8.1,-,0.00,Snow,Light Snow,360,2012-01-20 05:06:00
12:08 AM,26.6,23.0,86,30.01,3.0,North,8.1,-,0.00,Snow,Light Snow,360,2012-01-20 05:08:00
12:15 AM,26.6,21.2,80,30.02,3.0,North,8.1,-,0.00,Snow,Light Snow,350,2012-01-20 05:15:00
12:34 AM,26.6,21.2,80,30.03,2.0,NNW,6.9,-,0.00,Snow,Light Snow,340,2012-01-20 05:34:00
12:39 AM,26.6,21.2,80,30.03,1.8,NNW,9.2,-,0.00,Snow,Light Snow,330,2012-01-20 05:39:00
12:50 AM,24.8,21.2,86,30.04,1.5,NNW,8.1,-,0.00,Snow,Light Snow,330,2012-01-20 05:50:00
12:53 AM,25.0,21.0,85,30.08,1.2,NNW,10.4,-,0.00,Snow,Light Snow,330,2012-01-20 05:53:00
1:00 AM,24.8,21.2,86,30.05,1.2,NNW,4.6,-,0.00,Snow,Light Snow,330,2012-01-20 06:00:00
1:08 AM,24.8,21.2,86,30.05,2.0,NNW,6.9,-,0.00,Snow,Light Snow,340,2012-01-20 06:08:00
1:15 AM,24.8,19.4,80,30.05,2.5,North,6.9,-,0.00,Snow,Light Snow,350,2012-01-20 06:15:00
1:24 AM,24.8,19.4,80,30.06,3.0,NNW,6.9,-,0.00,Snow,Light Snow,330,2012-01-20 06:24:00
1:53 AM,24.1,19.0,81,30.12,9.0,NNW,3.5,-,0.00,,Overcast,340,2012-01-20 06:53:00
2:53 AM,19.9,12.0,71,30.14,10.0,North,6.9,-,N/A,,Overcast,10,2012-01-20 07:53:00
3:53 AM,19.0,9.0,65,30.18,10.0,North,9.2,-,N/A,,Overcast,350,2012-01-20 08:53:00
4:16 AM,17.6,8.6,68,30.15,10.0,North,6.9,-,N/A,,Mostly Cloudy,350,2012-01-20 09:16:00
4:53 AM,16.0,8.1,71,30.20,10.0,North,5.8,-,N/A,,Scattered Clouds,350,2012-01-20 09:53:00
5:53 AM,14.0,7.0,74,30.22,10.0,Calm,Calm,-,N/A,,Clear,0,2012-01-20 10:53:00
6:53 AM,12.0,7.0,80,30.23,10.0,Calm,Calm,-,N/A,,Clear,0,2012-01-20 11:53:00
7:53 AM,12.0,7.0,80,30.24,10.0,North,3.5,-,N/A,,Clear,10,2012-01-20 12:53:00
8:53 AM,12.9,8.1,81,30.27,10.0,NE,3.5,-,N/A,,Clear,40,2012-01-20 13:53:00
9:53 AM,15.1,8.1,74,30.27,10.0,NNE,3.5,-,N/A,,Clear,30,2012-01-20 14:53:00
10:53 AM,16.0,8.1,71,30.30,10.0,NNE,4.6,-,N/A,,Clear,20,2012-01-20 15:53:00
11:53 AM,19.9,10.0,65,30.28,10.0,North,3.5,-,N/A,,Clear,10,2012-01-20 16:53:00
12:53 PM,21.9,12.0,66,30.23,10.0,Calm,Calm,-,0.01,,Clear,0,2012-01-20 17:53:00
1:53 PM,24.1,12.0,60,30.21,10.0,NNE,4.6,-,N/A,,Clear,20,2012-01-20 18:53:00
2:53 PM,26.1,14.0,60,30.19,10.0,North,4.6,-,N/A,,Partly Cloudy,360,2012-01-20 19:53:00
3:53 PM,26.1,15.1,63,30.17,10.0,NNE,3.5,-,N/A,,Mostly Cloudy,20,2012-01-20 20:53:00
4:53 PM,26.1,12.9,58,30.18,10.0,NNE,4.6,-,N/A,,Overcast,30,2012-01-20 21:53:00
5:53 PM,26.1,14.0,60,30.17,10.0,NNE,3.5,-,N/A,,Overcast,30,2012-01-20 22:53:00
6:53 PM,26.1,14.0,60,30.14,10.0,North,3.5,-,N/A,,Overcast,10,2012-01-20 23:53:00
7:53 PM,26.1,17.1,69,30.09,10.0,NNE,4.6,-,0.00,,Overcast,30,2012-01-21 00:53:00
8:53 PM,28.0,19.9,72,30.04,10.0,Calm,Calm,-,N/A,,Overcast,0,2012-01-21 01:53:00
9:53 PM,35.1,24.1,64,29.99,10.0,ESE,5.8,-,N/A,,Overcast,110,2012-01-21 02:53:00
10:43 PM,33.8,26.6,75,29.92,5.0,Variable,4.6,-,0.04,Rain,Light Rain,0,2012-01-21 03:43:00
10:51 PM,33.8,28.4,81,29.92,6.0,Calm,Calm,-,0.05,Rain,Light Rain,0,2012-01-21 03:51:00
10:53 PM,34.0,28.0,79,29.97,7.0,Calm,Calm,-,0.05,Rain,Light Rain,0,2012-01-21 03:53:00
11:38 PM,33.8,28.4,81,29.89,5.0,Variable,4.6,-,0.03,Rain,Light Rain,0,2012-01-21 04:38:00
11:45 PM,33.8,28.4,81,29.89,5.0,East,4.6,-,0.03,Rain,Light Freezing Rain,80,2012-01-21 04:45:00
11:53 PM,33.1,28.9,85,29.93,5.0,Calm,Calm,-,0.03,Rain,Light Freezing Rain,0,2012-01-21 04:53:00